Prudhoe Bay, AK

8:54 AM AKST on February 08, 2016 (GMT -0900)
Deadhorse

Weather History for PASC - October, 2012

Change the Weather History Date:

Monday, October 29, 2012

  Actual Average Record
Temperature  
Mean Temperature 19 °F -  
Max Temperature 23 °F 11 °F 33 °F (1996)
Min Temperature 12 °F 0 °F -10 °F (1990)
Degree Days  
Heating Degree Days 46    
Moisture  
Dew Point 17 °F    
Average Humidity 92    
Maximum Humidity 100    
Minimum Humidity 88    
Precipitation  
Precipitation 0.00 in - - ()
Sea Level Pressure  
Sea Level Pressure 29.95 in    
Wind  
Wind Speed 18 mph (WSW)    
Max Wind Speed 21 mph    
Max Gust Speed -    
Visibility 6 miles    
Events Snow    
Averages and records for this station are not official NWS values.
T = Trace of Precipitation, MM = Missing Value Source: NWS Daily Summary

Daily Weather History Graph

Daily Weather History Graph

Search for Another Location

Airport or City:

Trip Planner

Search our weather history database for the weather conditions in past years. The results will help you decide how hot, cold, wet, or windy it might be!

Date:

Astronomy

Oct. 29, 2012 Rise Set
Actual Time 10:15 AM AKDT 4:58 PM AKDT
Civil Twilight 9:02 AM AKDT 6:11 PM AKDT
Nautical Twilight 7:48 AM AKDT 7:24 PM AKDT
Astronomical Twilight 6:36 AM AKDT 8:35 PM AKDT
Moon 4:15 PM AKDT (10/29) 10:48 AM AKDT (10/29)
Length of Visible Light 9h 08m
Length of Day
6h 42m
Full, 100% of the Moon is Illuminated
Oct 29
Full
Nov 6
Last Quarter
Nov 13
New
Nov 20
First Quarter
Nov 28
Full

Hourly Weather History & Observations

Time (AKDT) Temp. Windchill Dew Point Humidity Pressure Visibility Wind Dir Wind Speed Gust Speed Precip Events Conditions
12:53 AM 21.9 °F 6.9 °F 19.9 °F 92% 29.99 in 10.0 mi West 19.6 mph - 0.00 in   Overcast
1:53 AM 23.0 °F 8.7 °F 21.0 °F 92% 29.98 in 10.0 mi WSW 18.4 mph - N/A   Overcast
2:53 AM 23.0 °F 9.2 °F 21.0 °F 92% 29.96 in 6.0 mi WSW 17.3 mph - 0.00 in Snow Light Snow
3:53 AM 21.9 °F 7.8 °F 19.9 °F 92% 29.95 in 10.0 mi WSW 17.3 mph - 0.00 in   Overcast
4:53 AM 19.0 °F 4.0 °F 17.1 °F 92% 29.94 in 10.0 mi WSW 17.3 mph - N/A   Mostly Cloudy
5:53 AM 19.9 °F 5.2 °F 18.0 °F 92% 29.93 in 10.0 mi WSW 17.3 mph - N/A   Overcast
6:53 AM 19.9 °F 4.3 °F 17.1 °F 89% 29.92 in 10.0 mi WSW 19.6 mph - N/A   Scattered Clouds
7:53 AM 19.0 °F 5.0 °F 17.1 °F 92% 29.91 in 10.0 mi WSW 15.0 mph - N/A   Overcast
8:53 AM 16.0 °F 1.1 °F 15.1 °F 96% 29.91 in 10.0 mi WSW 15.0 mph - N/A   Overcast
9:24 AM 19.4 °F 5.0 °F 17.6 °F 93% 29.89 in 10.0 mi WSW 16.1 mph - N/A   Overcast
9:53 AM 19.0 °F 4.5 °F 17.1 °F 92% 29.90 in 10.0 mi WSW 16.1 mph - N/A   Overcast
10:53 AM 18.0 °F 3.1 °F 16.0 °F 92% 29.91 in 10.0 mi WSW 16.1 mph - N/A   Overcast
11:53 AM 16.0 °F 0.6 °F 14.0 °F 92% 29.91 in 10.0 mi WSW 16.1 mph - N/A   Mostly Cloudy
12:53 PM 19.9 °F 5.2 °F 17.1 °F 89% 29.91 in 2.0 mi WSW 17.3 mph - 0.00 in Snow Light Snow
1:01 PM 19.4 °F 4.1 °F 17.6 °F 93% 29.91 in 1.0 mi WSW 18.4 mph - 0.00 in Snow Light Snow
1:41 PM 21.2 °F 6.0 °F 19.4 °F 93% 29.91 in 2.0 mi WSW 19.6 mph - 0.00 in Snow Light Snow
1:53 PM 19.9 °F 4.3 °F 18.0 °F 92% 29.92 in 3.0 mi WSW 19.6 mph - 0.00 in Snow Light Snow
2:10 PM 19.4 °F 3.2 °F 19.4 °F 100% 29.92 in 1.0 mi WSW 20.7 mph - 0.00 in Snow Light Snow
2:43 PM 19.4 °F 4.1 °F 17.6 °F 93% 29.92 in 1.0 mi WSW 18.4 mph - 0.00 in Snow Light Snow
2:53 PM 19.9 °F 4.8 °F 18.0 °F 92% 29.93 in 1.0 mi WSW 18.4 mph - 0.00 in Snow Light Snow
3:34 PM 19.4 °F 3.6 °F 17.6 °F 93% 29.93 in 3.0 mi WSW 19.6 mph - 0.00 in Snow Light Snow
3:53 PM 19.9 °F 4.8 °F 18.0 °F 92% 29.94 in 3.0 mi West 18.4 mph - 0.00 in Snow Light Snow
4:53 PM 19.0 °F 2.7 °F 17.1 °F 92% 29.95 in 6.0 mi West 20.7 mph - 0.00 in   Overcast
5:53 PM 16.0 °F -1.3 °F 14.0 °F 92% 29.96 in 6.0 mi West 20.7 mph - N/A   Overcast
6:53 PM 16.0 °F -0.9 °F 14.0 °F 92% 29.98 in 10.0 mi West 19.6 mph - 0.00 in   Overcast
7:53 PM 18.0 °F 1.7 °F 16.0 °F 92% 29.99 in 2.0 mi West 19.6 mph - 0.00 in Snow Light Snow
8:02 PM 17.6 °F 0.9 °F 15.8 °F 93% 29.98 in 1.5 mi West 20.7 mph - 0.00 in Snow Light Snow
8:11 PM 17.6 °F 0.9 °F 15.8 °F 93% 29.98 in 2.0 mi West 20.7 mph - 0.00 in Snow Light Snow
8:23 PM 17.6 °F 1.3 °F 15.8 °F 93% 29.98 in 4.0 mi West 19.6 mph - 0.00 in Snow Light Snow
8:53 PM 17.1 °F 0.6 °F 15.1 °F 92% 30.00 in 5.0 mi West 19.6 mph - 0.00 in Snow Light Snow
9:53 PM 17.1 °F 1.5 °F 15.1 °F 92% 30.01 in 5.0 mi WSW 17.3 mph - 0.00 in Snow Light Snow
10:53 PM 15.1 °F -0.1 °F 12.0 °F 88% 30.03 in 7.0 mi WSW 15.0 mph - 0.00 in Snow Light Snow
11:53 PM 12.9 °F -3.4 °F 10.0 °F 88% 30.05 in 9.0 mi SW 16.1 mph - 0.00 in Snow Light Snow